Weather History for Rickenbacker, OH

Change the Weather History Date:

Saturday, December 22, 2012

  Actual Average Record
Temperature  
Mean Temperature 30 °F -  
Max Temperature 33 °F 36 °F 67 °F (2013)
Min Temperature 26 °F 22 °F 3 °F (2000)
Degree Days  
Heating Degree Days 36    
Moisture  
Dew Point 23 °F    
Average Humidity 73    
Maximum Humidity 79    
Minimum Humidity 65    
Precipitation  
Precipitation 0.00 in - - ()
Sea Level Pressure  
Sea Level Pressure 30.10 in    
Wind  
Wind Speed 14 mph (WSW)    
Max Wind Speed 20 mph    
Max Gust Speed 30 mph    
Visibility 10 miles    
Events      
Averages and records for this station are not official NWS values.
T = Trace of Precipitation, MM = Missing Value Source: NWS Daily Summary

Daily Weather History Graph

Daily Weather History Graph

Search for Another Location

Airport:

Trip Planner

Search our weather history database for the weather conditions in past years. The results will help you decide how hot, cold, wet, or windy it might be!

Date:

Astronomy

Dec. 22, 2012 Rise Set
Actual Time 7:50 AM EST 5:11 PM EST
Civil Twilight 7:19 AM EST 5:41 PM EST
Nautical Twilight 6:45 AM EST 6:15 PM EST
Astronomical Twilight 6:12 AM EST 6:48 PM EST
Moon 1:27 PM EST (12/22) 2:34 AM EST (12/22)
Length of Visible Light 10h 21m
Length of Day
9h 20m
Waxing Gibbous, 73% of the Moon is Illuminated
Dec 22
Waxing Gibbous
Dec 28
Full
Jan 4
Last Quarter
Jan 11
New
Jan 18
First Quarter

Hourly Weather History & Observations

Time (EST) Temp. Windchill Dew Point Humidity Pressure Visibility Wind Dir Wind Speed Gust Speed Precip Events Conditions
12:15 AM 33.4 °F 22.3 °F 25.7 °F 73% 29.93 in 10.0 mi West 18.4 mph 27.6 mph N/A   Overcast
12:35 AM 33.3 °F 22.1 °F 25.7 °F 74% 29.94 in 10.0 mi WNW 18.4 mph 28.8 mph N/A   Overcast
12:55 AM 33.3 °F 22.5 °F 25.7 °F 74% 29.95 in 10.0 mi West 17.3 mph 29.9 mph N/A   Overcast
1:15 AM 33.3 °F 22.8 °F 25.5 °F 73% 29.95 in 10.0 mi WNW 16.1 mph 25.3 mph N/A   Overcast
1:35 AM 33.1 °F 21.9 °F 25.2 °F 73% 29.96 in 10.0 mi West 18.4 mph 26.5 mph N/A   Overcast
1:55 AM 33.1 °F 21.9 °F 25.0 °F 72% 29.97 in 10.0 mi West 18.4 mph 26.5 mph N/A   Overcast
2:15 AM 33.1 °F 21.9 °F 25.0 °F 72% 29.99 in 10.0 mi West 18.4 mph 23.0 mph N/A   Overcast
2:35 AM 33.1 °F 22.6 °F 24.6 °F 71% 30.01 in 10.0 mi West 16.1 mph 21.9 mph N/A   Overcast
2:55 AM 33.1 °F 23.4 °F 24.6 °F 71% 30.01 in 10.0 mi West 13.8 mph - N/A   Overcast
3:15 AM 32.9 °F 22.4 °F 24.4 °F 71% 30.02 in 10.0 mi West 16.1 mph 24.2 mph N/A   Overcast
3:35 AM 32.4 °F 21.3 °F 24.4 °F 73% 30.03 in 10.0 mi West 17.3 mph 21.9 mph N/A   Overcast
3:55 AM 32.0 °F 22.1 °F 24.4 °F 74% 30.03 in 10.0 mi West 13.8 mph 23.0 mph N/A   Overcast
4:15 AM 32.0 °F 20.8 °F 24.4 °F 74% 30.04 in 10.0 mi West 17.3 mph 20.7 mph N/A   Overcast
4:35 AM 31.8 °F 21.0 °F 24.4 °F 74% 30.05 in 10.0 mi West 16.1 mph 23.0 mph N/A   Overcast
4:55 AM 31.8 °F 21.8 °F 24.4 °F 74% 30.04 in 10.0 mi West 13.8 mph 19.6 mph N/A   Overcast
5:15 AM 31.8 °F 20.6 °F 24.3 °F 74% 30.05 in 10.0 mi West 17.3 mph - N/A   Overcast
5:35 AM 31.6 °F 20.4 °F 24.3 °F 74% 30.07 in 10.0 mi West 17.3 mph 23.0 mph N/A   Overcast
5:55 AM 31.3 °F 21.6 °F 24.3 °F 75% 30.07 in 10.0 mi West 12.7 mph - N/A   Overcast
6:15 AM 31.1 °F 20.9 °F 24.4 °F 76% 30.08 in 10.0 mi West 13.8 mph 19.6 mph N/A   Overcast
6:35 AM 31.1 °F 20.1 °F 24.3 °F 76% 30.08 in 10.0 mi West 16.1 mph 20.7 mph N/A   Overcast
6:55 AM 31.1 °F 20.5 °F 24.1 °F 75% 30.09 in 10.0 mi West 15.0 mph 21.9 mph N/A   Overcast
7:15 AM 31.1 °F 20.1 °F 23.9 °F 75% 30.10 in 10.0 mi West 16.1 mph - N/A   Overcast
7:35 AM 30.9 °F 20.7 °F 23.9 °F 75% 30.10 in 10.0 mi West 13.8 mph - N/A   Overcast
7:55 AM 30.9 °F 20.7 °F 23.9 °F 75% 30.10 in 10.0 mi West 13.8 mph - N/A   Overcast
8:15 AM 30.9 °F 20.2 °F 23.9 °F 75% 30.11 in 10.0 mi West 15.0 mph - N/A   Overcast
8:35 AM 30.9 °F 19.8 °F 23.7 °F 75% 30.13 in 10.0 mi West 16.1 mph - N/A   Overcast
8:55 AM 30.9 °F 20.2 °F 23.7 °F 75% 30.13 in 10.0 mi West 15.0 mph 21.9 mph N/A   Overcast
9:15 AM 31.1 °F 20.9 °F 23.7 °F 74% 30.14 in 10.0 mi West 13.8 mph - N/A   Overcast
9:35 AM 31.5 °F 20.9 °F 23.9 °F 74% 30.15 in 10.0 mi West 15.0 mph - N/A   Overcast
9:55 AM 31.5 °F 20.9 °F 23.7 °F 73% 30.16 in 10.0 mi West 15.0 mph - N/A   Overcast
10:15 AM 31.8 °F 22.3 °F 23.4 °F 71% 30.17 in 10.0 mi West 12.7 mph 19.6 mph N/A   Overcast
10:35 AM 32.0 °F 20.8 °F 23.0 °F 69% 30.18 in 10.0 mi West 17.3 mph 20.7 mph N/A   Overcast
10:55 AM 32.0 °F 21.6 °F 22.6 °F 68% 30.18 in 10.0 mi West 15.0 mph 23.0 mph N/A   Overcast
11:15 AM 32.0 °F 21.6 °F 22.5 °F 68% 30.18 in 10.0 mi West 15.0 mph 18.4 mph N/A   Overcast
11:35 AM 32.0 °F 20.1 °F 22.5 °F 68% 30.17 in 10.0 mi West 19.6 mph - N/A   Overcast
11:55 AM 32.0 °F 22.1 °F 22.6 °F 68% 30.16 in 10.0 mi West 13.8 mph 21.9 mph N/A   Overcast
12:15 PM 32.0 °F 20.8 °F 22.5 °F 68% 30.15 in 10.0 mi West 17.3 mph - N/A   Overcast
12:35 PM 31.8 °F 22.3 °F 22.5 °F 68% 30.15 in 10.0 mi West 12.7 mph - N/A   Overcast
12:55 PM 31.8 °F 21.0 °F 22.8 °F 69% 30.15 in 10.0 mi West 16.1 mph - N/A   Overcast
1:15 PM 31.3 °F 20.3 °F 22.6 °F 70% 30.15 in 10.0 mi WSW 16.1 mph 24.2 mph N/A   Overcast
1:35 PM 31.3 °F 19.9 °F 21.7 °F 68% 30.15 in 10.0 mi West 17.3 mph - N/A   Overcast
1:55 PM 31.3 °F 20.7 °F 21.6 °F 67% 30.15 in 10.0 mi West 15.0 mph - N/A   Overcast
2:15 PM 31.5 °F 20.9 °F 22.1 °F 68% 30.15 in 10.0 mi WSW 15.0 mph 18.4 mph N/A   Overcast
2:35 PM 31.6 °F 22.1 °F 21.9 °F 67% 30.14 in 10.0 mi WSW 12.7 mph - N/A   Overcast
2:55 PM 31.8 °F 21.8 °F 21.9 °F 67% 30.14 in 10.0 mi WSW 13.8 mph - N/A   Overcast
3:15 PM 31.5 °F 21.8 °F 21.9 °F 68% 30.15 in 10.0 mi West 12.7 mph - N/A   Overcast
3:35 PM 31.6 °F 21.6 °F 21.9 °F 67% 30.15 in 10.0 mi WSW 13.8 mph - N/A   Overcast
3:55 PM 31.3 °F 22.1 °F 21.4 °F 67% 30.13 in 10.0 mi West 11.5 mph - N/A   Mostly Cloudy
4:15 PM 31.6 °F 23.1 °F 21.2 °F 65% 30.14 in 10.0 mi West 10.4 mph - N/A   Clear
4:35 PM 31.5 °F 24.9 °F 21.2 °F 66% 30.14 in 10.0 mi WSW 6.9 mph - N/A   Clear
4:55 PM 30.9 °F 26.2 °F 21.2 °F 67% 30.13 in 10.0 mi WSW 4.6 mph - N/A   Clear
5:35 PM 30.0 °F - 21.7 °F 71% 30.13 in 10.0 mi Calm Calm - N/A   Clear
5:55 PM 29.5 °F 23.4 °F 22.1 °F 74% 30.13 in 10.0 mi SSW 5.8 mph - N/A   Clear
6:15 PM 28.9 °F 22.8 °F 21.9 °F 75% 30.13 in 10.0 mi SW 5.8 mph - N/A   Clear
6:35 PM 28.8 °F 22.6 °F 21.6 °F 74% 30.13 in 10.0 mi SW 5.8 mph - N/A   Clear
6:55 PM 27.7 °F 20.4 °F 21.0 °F 76% 30.13 in 10.0 mi SSW 6.9 mph - N/A   Clear
7:15 PM 27.7 °F 21.3 °F 21.2 °F 77% 30.13 in 10.0 mi SSW 5.8 mph - N/A   Clear
7:35 PM 27.5 °F 20.2 °F 21.0 °F 77% 30.13 in 10.0 mi SSW 6.9 mph - N/A   Clear
7:55 PM 27.0 °F 21.6 °F 20.8 °F 78% 30.13 in 10.0 mi SSW 4.6 mph - N/A   Clear
8:15 PM 27.3 °F 20.9 °F 21.2 °F 78% 30.13 in 10.0 mi SSW 5.8 mph - N/A   Clear
8:35 PM 27.0 °F 20.5 °F 21.0 °F 78% 30.13 in 10.0 mi South 5.8 mph - N/A   Clear
8:55 PM 26.8 °F 21.4 °F 20.8 °F 78% 30.12 in 10.0 mi South 4.6 mph - N/A   Clear
9:35 PM 26.6 °F 19.1 °F 20.7 °F 78% 30.11 in 10.0 mi South 6.9 mph - N/A   Clear
9:55 PM 26.8 °F 19.3 °F 21.0 °F 79% 30.10 in 10.0 mi South 6.9 mph - N/A   Clear
10:15 PM 27.0 °F 19.5 °F 21.0 °F 78% 30.09 in 10.0 mi South 6.9 mph - N/A   Clear
10:35 PM 27.1 °F 20.7 °F 20.8 °F 77% 30.09 in 10.0 mi South 5.8 mph - N/A   Clear
10:55 PM 26.8 °F 20.2 °F 20.3 °F 77% 30.08 in 10.0 mi South 5.8 mph - N/A   Clear
11:15 PM 26.4 °F 19.8 °F 20.3 °F 78% 30.08 in 10.0 mi South 5.8 mph - N/A   Clear
11:35 PM 26.4 °F 19.8 °F 20.5 °F 78% 30.08 in 10.0 mi SSW 5.8 mph - N/A   Clear
11:55 PM 26.1 °F 20.5 °F 20.3 °F 79% 30.08 in 10.0 mi SSW 4.6 mph - N/A   Clear